Previsão horária em Barpeta

Hoje, 25 Outubro, Domingo

Tempo Temperatura Precipitação Vento Pressão Humidade
00:00 +23°C° 0.1 mm 4 m/s 754 mmHg 95%
01:00 +23°C° 0.2 mm 4 m/s 754 mmHg 95%
02:00 +22°C° 0.2 mm 3 m/s 754 mmHg 95%
03:00 +22°C° 0.2 mm 3 m/s 754 mmHg 96%
04:00 +22°C° 0.7 mm 3 m/s 754 mmHg 96%
05:00 +22°C° 0.7 mm 3 m/s 754 mmHg 96%
06:00 +22°C° 0.7 mm 3 m/s 755 mmHg 96%
07:00 +24°C° 0.6 mm 3 m/s 755 mmHg 94%
08:00 +25°C° 0.6 mm 4 m/s 755 mmHg 92%
09:00 +26°C° 0.6 mm 4 m/s 756 mmHg 89%
10:00 +27°C° 0.2 mm 3 m/s 755 mmHg 85%
11:00 +28°C° 0.2 mm 3 m/s 755 mmHg 80%
12:00 +30°C° 0.2 mm 3 m/s 754 mmHg 75%
13:00 +30°C° 0.1 mm 3 m/s 754 mmHg 75%
14:00 +30°C° 0.1 mm 3 m/s 753 mmHg 74%
15:00 +30°C° 0.1 mm 3 m/s 753 mmHg 73%
16:00 +29°C° 0.6 mm 2 m/s 753 mmHg 77%
17:00 +28°C° 0.6 mm 2 m/s 753 mmHg 81%
18:00 +27°C° 0.6 mm 1 m/s 754 mmHg 85%
19:00 +27°C° 0.3 mm 1 m/s 754 mmHg 86%
20:00 +27°C° 0.3 mm 1 m/s 755 mmHg 87%
21:00 +26°C° 0.3 mm 1 m/s 755 mmHg 88%
22:00 +26°C° 0.2 mm 1 m/s 755 mmHg 89%
23:00 +26°C° 0.2 mm 1 m/s 755 mmHg 91%

Amanhã, 26 Outubro, Segunda-feira

Tempo Temperatura Precipitação Vento Pressão Humidade
00:00 +25°C° 0.2 mm 1 m/s 755 mmHg 92%
01:00 +25°C° 0.5 mm 1 m/s 755 mmHg 93%
02:00 +25°C° 0.5 mm 1 m/s 755 mmHg 93%
03:00 +24°C° 0.5 mm 1 m/s 755 mmHg 94%
04:00 +24°C° 0.3 mm 1 m/s 755 mmHg 94%
05:00 +24°C° 0.3 mm 1 m/s 755 mmHg 94%
06:00 +24°C° 0.3 mm 1 m/s 755 mmHg 94%
07:00 +25°C° 0.2 mm 2 m/s 755 mmHg 90%
08:00 +26°C° 0.2 mm 2 m/s 756 mmHg 86%
09:00 +27°C° 0.2 mm 2 m/s 756 mmHg 82%
10:00 +28°C° 0.3 mm 2 m/s 756 mmHg 79%
11:00 +29°C° 0.3 mm 2 m/s 755 mmHg 76%
12:00 +30°C° 0.3 mm 1 m/s 755 mmHg 73%
13:00 +31°C° 0.5 mm 1 m/s 754 mmHg 71%
14:00 +31°C° 0.5 mm 1 m/s 753 mmHg 69%
15:00 +31°C° 0.5 mm 1 m/s 753 mmHg 67%
16:00 +30°C° 0.4 mm 1 m/s 753 mmHg 72%
17:00 +29°C° 0.4 mm 1 m/s 753 mmHg 77%
18:00 +28°C° 0.4 mm 1 m/s 754 mmHg 83%
19:00 +27°C° 0.4 mm 1 m/s 754 mmHg 84%
20:00 +27°C° 0.4 mm 1 m/s 755 mmHg 86%
21:00 +26°C° 0.4 mm 1 m/s 755 mmHg 88%
22:00 +26°C° 0.2 mm 1 m/s 755 mmHg 89%
23:00 +26°C° 0.2 mm 1 m/s 755 mmHg 90%

Depois de amanhã, 27 Outubro, Terça-feira

Tempo Temperatura Precipitação Vento Pressão Humidade
00:00 +25°C° 0.2 mm 1 m/s 755 mmHg 91%
01:00 +25°C° 0.3 mm 1 m/s 755 mmHg 92%
02:00 +23°C° 0.3 mm 0 m/s 754 mmHg 92%
03:00 +22°C° 0.3 mm 0 m/s 754 mmHg 93%
04:00 +24°C° 0.1 mm 1 m/s 754 mmHg 93%
05:00 +24°C° 0.1 mm 1 m/s 755 mmHg 93%
06:00 +24°C° 0.1 mm 1 m/s 755 mmHg 94%
07:00 +25°C° 0 mm 1 m/s 755 mmHg 90%
08:00 +26°C° 0 mm 1 m/s 755 mmHg 87%
09:00 +27°C° 0 mm 2 m/s 755 mmHg 83%
10:00 +28°C° 0 mm 1 m/s 755 mmHg 78%
11:00 +29°C° 0 mm 1 m/s 755 mmHg 74%
12:00 +31°C° 0 mm 1 m/s 754 mmHg 69%
13:00 +31°C° 0 mm 1 m/s 754 mmHg 68%
14:00 +31°C° 0 mm 1 m/s 753 mmHg 66%
15:00 +29°C° 0 mm 0 m/s 753 mmHg 64%
16:00 +30°C° 0.1 mm 1 m/s 753 mmHg 69%
17:00 +29°C° 0.1 mm 1 m/s 753 mmHg 73%
18:00 +28°C° 0.1 mm 1 m/s 754 mmHg 78%
19:00 +27°C° 0 mm 1 m/s 754 mmHg 80%
20:00 +27°C° 0 mm 1 m/s 755 mmHg 83%
21:00 +26°C° 0 mm 1 m/s 755 mmHg 85%
22:00 +26°C° 0 mm 1 m/s 755 mmHg 86%
23:00 +25°C° 0 mm 1 m/s 755 mmHg 88%

28 Outubro, Quarta-feira

Tempo Temperatura Precipitação Vento Pressão Humidade
00:00 +25°C° 0 mm 1 m/s 755 mmHg 89%
01:00 +25°C° 0 mm 1 m/s 755 mmHg 90%
02:00 +24°C° 0 mm 1 m/s 755 mmHg 91%
03:00 +24°C° 0 mm 2 m/s 755 mmHg 92%
04:00 +24°C° 0 mm 2 m/s 755 mmHg 91%
05:00 +23°C° 0 mm 2 m/s 755 mmHg 91%
06:00 +23°C° 0 mm 2 m/s 755 mmHg 91%
07:00 +24°C° 0 mm 2 m/s 755 mmHg 87%
08:00 +26°C° 0 mm 3 m/s 756 mmHg 82%
09:00 +27°C° 0 mm 3 m/s 756 mmHg 78%
10:00 +29°C° 0 mm 3 m/s 755 mmHg 73%
11:00 +30°C° 0 mm 3 m/s 755 mmHg 69%
12:00 +31°C° 0 mm 3 m/s 754 mmHg 65%
13:00 +31°C° 0 mm 3 m/s 754 mmHg 63%
14:00 +32°C° 0 mm 2 m/s 753 mmHg 62%
15:00 +32°C° 0 mm 2 m/s 752 mmHg 60%
16:00 +30°C° 0 mm 2 m/s 753 mmHg 65%
17:00 +29°C° 0 mm 2 m/s 753 mmHg 71%
18:00 +27°C° 0 mm 1 m/s 753 mmHg 76%
19:00 +27°C° 0 mm 1 m/s 754 mmHg 78%
20:00 +26°C° 0 mm 1 m/s 754 mmHg 80%
21:00 +26°C° 0 mm 1 m/s 755 mmHg 83%
22:00 +25°C° 0 mm 1 m/s 755 mmHg 83%
23:00 +25°C° 0 mm 1 m/s 755 mmHg 84%

29 Outubro, Quinta-feira

Tempo Temperatura Precipitação Vento Pressão Humidade
00:00 +24°C° 0 mm 1 m/s 755 mmHg 84%
01:00 +24°C° 0 mm 1 m/s 755 mmHg 82%
02:00 +24°C° 0 mm 1 m/s 755 mmHg 80%
03:00 +23°C° 0 mm 1 m/s 755 mmHg 79%
04:00 +23°C° 0 mm 2 m/s 755 mmHg 77%
05:00 +23°C° 0 mm 2 m/s 756 mmHg 75%
06:00 +21°C° 0 mm 2 m/s 756 mmHg 74%
07:00 +24°C° 0 mm 3 m/s 756 mmHg 74%
08:00 +25°C° 0 mm 3 m/s 756 mmHg 74%
09:00 +26°C° 0 mm 3 m/s 756 mmHg 74%
10:00 +28°C° 0 mm 3 m/s 756 mmHg 70%
11:00 +30°C° 0 mm 3 m/s 755 mmHg 66%
12:00 +31°C° 0 mm 3 m/s 754 mmHg 63%
13:00 +33°C° 0 mm 3 m/s 754 mmHg 62%
14:00 +33°C° 0 mm 3 m/s 753 mmHg 61%
15:00 +33°C° 0 mm 3 m/s 753 mmHg 60%
16:00 +30°C° 0 mm 2 m/s 753 mmHg 66%
17:00 +29°C° 0 mm 2 m/s 754 mmHg 71%
18:00 +27°C° 0 mm 2 m/s 754 mmHg 77%
19:00 +27°C° 0 mm 1 m/s 754 mmHg 79%
20:00 +26°C° 0 mm 1 m/s 755 mmHg 81%
21:00 +26°C° 0 mm 1 m/s 755 mmHg 82%
22:00 +25°C° 0 mm 1 m/s 755 mmHg 82%
23:00 +25°C° 0 mm 1 m/s 755 mmHg 81%

30 Outubro, Sexta-feira

Tempo Temperatura Precipitação Vento Pressão Humidade
00:00 +24°C° 0 mm 1 m/s 755 mmHg 80%
01:00 +24°C° 0 mm 1 m/s 755 mmHg 78%
02:00 +23°C° 0 mm 2 m/s 755 mmHg 77%
03:00 +23°C° 0 mm 2 m/s 755 mmHg 75%
04:00 +23°C° 0 mm 2 m/s 755 mmHg 74%
05:00 +21°C° 0 mm 2 m/s 755 mmHg 72%
06:00 +21°C° 0 mm 3 m/s 755 mmHg 70%
07:00 +24°C° 0 mm 3 m/s 755 mmHg 71%
08:00 +25°C° 0 mm 3 m/s 755 mmHg 71%
09:00 +26°C° 0 mm 4 m/s 755 mmHg 71%
10:00 +28°C° 0 mm 4 m/s 755 mmHg 69%
11:00 +30°C° 0 mm 4 m/s 754 mmHg 66%
12:00 +32°C° 0 mm 4 m/s 754 mmHg 63%
13:00 +31°C° 0 mm 3 m/s 753 mmHg 63%
14:00 +33°C° 0 mm 3 m/s 753 mmHg 63%
15:00 +33°C° 0 mm 3 m/s 752 mmHg 62%
16:00 +30°C° 0 mm 2 m/s 752 mmHg 68%
17:00 +29°C° 0 mm 2 m/s 753 mmHg 73%
18:00 +27°C° 0 mm 2 m/s 753 mmHg 79%
19:00 +27°C° 0 mm 2 m/s 754 mmHg 80%
20:00 +26°C° 0 mm 2 m/s 754 mmHg 81%
21:00 +25°C° 0 mm 1 m/s 755 mmHg 82%
22:00 +25°C° 0 mm 1 m/s 754 mmHg 81%
23:00 +24°C° 0 mm 1 m/s 754 mmHg 80%
Mostrar mais